Location: Veytaux
(46.4185°N, 6.9320°E)
Time: 08:03:57
(UTC+00:00)

SL-16 R/B - Pass Details

Date: 27 May 2022
Orbit: 985 x 1006 km, 99.6° (Epoch: 01 July)

Event Time Altitude Azimuth Distance (km) Brightness Sun altitude
Exits shadow 00:00:49 - 121° (ESE) 3,283 5.0 -21.9°
Reaches altitude 10° 00:02:25 10° 114° (ESE) 2,761 4.7 -21.9°
Maximum altitude 00:07:30 28° 59° (ENE) 1,795 4.3 -21.8°
Drops below altitude 10° 00:12:38 10° 4° (N) 2,785 6.0 -21.6°
Sets 00:15:28 0° 353° (N) 3,742 6.8 -21.5°
